Regional Weather Roundup
Issued by NWS

Home | Current Version | Previous Version | Graphics & Text | Print | Product List | Glossary On
Versions: 1 2 3 4 5 6 7 8 9 10 11 12 13 14 15 16 17 18 19 20 21 22 23 24 25 26 27 28 29 30 31 32 33 34 35 36 37 38 39 40 41 42 43 44 45 46 47 48 49 50
000
ASUS43 KFSD 290502
RWRSD

WEATHER ROUNDUP FOR SOUTH DAKOTA
NATIONAL WEATHER SERVICE SIOUX FALLS SD
1200 AM CDT SUN MAR 29 2015

NOTE: "FAIR" INDICATES FEW OR NO CLOUDS BELOW 12,000 FEET WITH NO
SIGNIFICANT WEATHER AND/OR OBSTRUCTIONS TO VISIBILITY.


SDZ001>005-009-010-012>017-290600-
NORTHWEST AND NORTH CENTRAL SOUTH DAKOTA

CITY           SKY/WX    TMP DP  RH WIND       PRES   REMARKS
BUFFALO          N/A     44  36  73 W13       29.75S
FAITH            N/A     49  36  61 NW21      29.76S
MOBRIDGE       CLOUDY    53  49  86 NW16      29.66R
$$

SDZ012>016-024>037-041>051-057-063-072>074-290600-
SOUTHWEST AND SOUTH CENTRAL SOUTH DAKOTA

CITY           SKY/WX    TMP DP  RH WIND       PRES   REMARKS
RAPID CTY ARPT CLEAR     56  16  20 NW39G55   29.79R
PIERRE         MOCLDY    58  47  66 NW36G44   29.66R
CUSTER         CLEAR     46  15  28 NW20G29   29.89R
ELLSWORTH AFB  CLEAR     55  16  21 NW30G40   29.81R
PHILIP         CLEAR     57  35  43 N26G40    29.77R
PINE RIDGE     CLEAR     58  31  35 N23G33    29.84R
SPEARFISH      MOCLDY    52  14  22 NW23G35   29.89F
WINNER         FAIR      67  39  35 NW29G44   29.63R
$$

SDZ004>011-016>023-039-040-290600-
NORTHEAST SOUTH DAKOTA

CITY           SKY/WX    TMP DP  RH WIND       PRES   REMARKS
ABERDEEN       CLOUDY    50  33  52 S16G30    29.66R
WATERTOWN      PTCLDY    43  30  60 S25G33    29.63F
SISSETON         N/A     43  31  62 S18       29.59F
$$

SDZ017-020-022-023-036>040-048>070-290600-
SOUTHEAST SOUTH DAKOTA

CITY           SKY/WX    TMP DP  RH WIND       PRES   REMARKS
SIOUX FALLS    CLEAR     43  30  60 S22G30    29.75F
HURON          PTCLDY    47  33  58 S30G41    29.60F
MITCHELL       PTCLDY    47  34  60 S22G30    29.67F
YANKTON        CLEAR     46  32  57 S23G32    29.74F
$$

ABBREVIATIONS USED IN REMARKS
   TC - TEMPERATURE IN CELSIUS
  WCI - WIND CHILL INDEX
   HX - HEAT INDEX
  VSB - VISIBILITY



USA.gov is the U.S. government's official web portal to all federal, state and local government web resources and services.